Terminal Aerodrome Forecast
Issued by NWS Wilmington, OH

Current Version | Previous Version | Graphics & Text | Print | Product List | Glossary On
Versions: 1 2 3 4 5 6 7 8 9 10 11 12 13 14 15 16 17 18 19 20 21 22 23 24 25 26 27
000
FTUS41 KILN 042100 AAC
TAFILN
TAF AMD
KILN 042100Z 0421/0518 33010KT 1 1/2SM -SN BR OVC010
     FM050100 35010KT 2SM -SN OVC012
     FM050700 35008KT P6SM SCT020 OVC100
     FM051200 34010KT P6SM BKN025=

USA.gov is the U.S. government's official web portal to all federal, state and local government web resources and services.